[TLELIST] Archives

 

[TLELIST] Current TLEs

June 2nd 2023 PST

HST 1 20580U 90037B 23152.90585373 .00004258 00000-0 22367-3 0 9999 2 20580 28.4707 9.6754 0002230 209.0227 278.5893 15.13157782619407 ISS (ZARYA) 1 25544U 98067A 23153.42015046 .00017048 00000-0 30163-3 0 9992 2 25544 51.6420 41.7426 0005273 43.7119 297.3474 15.50405251399494 CXO 1 25867U 99040B 23154.73769891 .00000616 00000-0 00000+0 0 9997 2 25867 37.7035 198.5805 9048339 260.9521 0.1123 0.37813990 24285 ...Continue Reading

[TLELIST] Current TLEs

June 1st 2023 PST

HST 1 20580U 90037B 23151.96437295 .00003631 00000-0 18924-3 0 9991 2 20580 28.4706 15.9385 0002291 197.3921 191.4430 15.13149238619006 ISS (ZARYA) 1 25544U 98067A 23152.28957880 .00028823 00000-0 50433-3 0 9991 2 25544 51.6411 47.3482 0005092 38.3010 108.4298 15.50372472399323 CXO 1 25867U 99040B 23154.73769891 .00000616 00000-0 00000+0 0 9997 2 25867 37.7035 198.5805 9048339 260.9521 0.1123 0.37813990 24285 ...Continue Reading

[TLELIST] Current TLEs

June 1st 2023 PST

HST 1 20580U 90037B 23151.96437295 .00003631 00000-0 18924-3 0 9991 2 20580 28.4706 15.9385 0002291 197.3921 191.4430 15.13149238619006 ISS (ZARYA) 1 25544U 98067A 23152.28957880 .00028823 00000-0 50433-3 0 9991 2 25544 51.6411 47.3482 0005092 38.3010 108.4298 15.50372472399323 CXO 1 25867U 99040B 23154.73769891 .00000616 00000-0 00000+0 0 9997 2 25867 37.7035 198.5805 9048339 260.9521 0.1123 0.37813990 24285 ...Continue Reading

[TLELIST] Current TLEs

May 31st 2023 PST

HST 1 20580U 90037B 23150.92389667 .00003616 00000-0 18846-3 0 9991 2 20580 28.4707 22.8601 0002320 186.4642 283.2872 15.13141785618847 ISS (ZARYA) 1 25544U 98067A 23151.31424947 .00039369 00000-0 68534-3 0 9995 2 25544 51.6400 52.1815 0006281 32.0612 67.5335 15.50354003399175 CXO 1 25867U 99040B 23152.09328780 .00000642 00000-0 00000+0 0 9991 2 25867 37.7296 198.8693 9049731 260.7279 0.0177 0.37815840 24270 ...Continue Reading

[TLELIST] Current TLEs

May 30th 2023 PST

HST 1 20580U 90037B 23150.06744576 .00003755 00000-0 19615-3 0 9999 2 20580 28.4707 28.5575 0002360 177.0674 298.0620 15.13136081618977 ISS (ZARYA) 1 25544U 98067A 23150.22508225 .00013293 00000-0 23809-3 0 9990 2 25544 51.6426 57.5769 0005342 36.4941 100.3182 15.50280847399002 CXO 1 25867U 99040B 23152.09328780 .00000642 00000-0 00000+0 0 9991 2 25867 37.7296 198.8693 9049731 260.7279 0.0177 0.37815840 24270 ...Continue Reading

[TLELIST] Current TLEs

May 29th 2023 PST

HST 1 20580U 90037B 23148.87634757 .00004241 00000-0 22291-3 0 9999 2 20580 28.4706 36.4809 0002445 164.4247 289.5647 15.13128778618534 ISS (ZARYA) 1 25544U 98067A 23149.25829992 .00013900 00000-0 24880-3 0 9993 2 25544 51.6433 62.3698 0005487 31.7591 105.9049 15.50253786398851 CXO 1 25867U 99040B 23149.44800758 .00000665 00000-0 00000+0 0 9991 2 25867 37.7551 199.2137 9052473 260.4525 359.8573 0.37816477 24261 ...Continue Reading

[TLELIST] Current TLEs

May 29th 2023 PST

HST 1 20580U 90037B 23148.87634757 .00004241 00000-0 22291-3 0 9999 2 20580 28.4706 36.4809 0002445 164.4247 289.5647 15.13128778618534 ISS (ZARYA) 1 25544U 98067A 23149.25829992 .00013900 00000-0 24880-3 0 9993 2 25544 51.6433 62.3698 0005487 31.7591 105.9049 15.50253786398851 CXO 1 25867U 99040B 23149.44800758 .00000665 00000-0 00000+0 0 9991 2 25867 37.7551 199.2137 9052473 260.4525 359.8573 0.37816477 24261 ...Continue Reading

[TLELIST] Current TLEs

May 28th 2023 PST

HST 1 20580U 90037B 23147.95401407 .00003456 00000-0 17977-3 0 9993 2 20580 28.4703 42.6161 0002536 155.2638 304.5552 15.13120578618391 ISS (ZARYA) 1 25544U 98067A 23148.29221582 .00011756 00000-0 21191-3 0 9996 2 25544 51.6418 67.1579 0005403 29.3487 113.1741 15.50227316398704 CXO 1 25867U 99040B 23149.44800758 .00000665 00000-0 00000+0 0 9991 2 25867 37.7551 199.2137 9052473 260.4525 359.8573 0.37816477 24261 ...Continue Reading

[TLELIST] Current TLEs

May 28th 2023 PST

HST 1 20580U 90037B 23147.95401407 .00003456 00000-0 17977-3 0 9993 2 20580 28.4703 42.6161 0002536 155.2638 304.5552 15.13120578618391 ISS (ZARYA) 1 25544U 98067A 23148.29221582 .00011756 00000-0 21191-3 0 9996 2 25544 51.6418 67.1579 0005403 29.3487 113.1741 15.50227316398704 CXO 1 25867U 99040B 23149.44800758 .00000665 00000-0 00000+0 0 9991 2 25867 37.7551 199.2137 9052473 260.4525 359.8573 0.37816477 24261 ...Continue Reading

[TLELIST] Current TLEs

May 27th 2023 PST

HST 1 20580U 90037B 23147.16757419 .00002723 00000-0 13952-3 0 9998 2 20580 28.4704 47.8475 0002542 146.8877 340.4966 15.13113670618534 ISS (ZARYA) 1 25544U 98067A 23147.32582755 .00012405 00000-0 22331-3 0 9990 2 25544 51.6414 71.9460 0005420 25.4252 120.3439 15.50206706398555 CXO 1 25867U 99040B 23149.44800758 .00000665 00000-0 00000+0 0 9991 2 25867 37.7551 199.2137 9052473 260.4525 359.8573 0.37816477 24261 ...Continue Reading
  • This mailing list is a public mailing list - anyone may join or leave, at any time.
  • This mailing list is announce-only.

International Space Station (ISS) / Hubble Space Telescope (HST) / Chandra X-Ray Observatory Orbital Data via EMAIL

Privacy Policy:

Private list